Location: Chircca
(13.7944°S, 72.0608°W)
Time: 04:38:42
(UTC+00:00)

NOAA 6 - Pass Details

Date: 14 July 2020
Orbit: 771 x 788 km, 98.7° (Epoch: 14 August)

Event Time Altitude Azimuth Distance (km) Brightness Sun altitude
Rises 10:05:35 0° 11° (NNE) 3,226 7.7 -16.1°
Reaches altitude 10° 10:07:52 10° 11° (N) 2,305 6.9 -15.6°
Maximum altitude 10:12:57 83° 283° (WNW) 782 3.9 -14.4°
Drops below altitude 10° 10:18:06 10° 194° (SSW) 2,329 6.2 -13.3°
Sets 10:20:26 0° 193° (SSW) 3,263 6.9 -12.7°
